Flag for Senegal Weather past 2 weeks in Thiès, Senegal

Now
82 °F

Passing clouds.


Feels Like: 87 °F
Forecast: 71 / 90 °F
Wind: 12 mph from Northwest

Location: Dakar / Yoff

Current Time: May 30, 2015 at 1:29:47 PM

Latest Report: May 30, 2015 at 1:00 PM


Visibility: N/A

Pressure: 29.89 "Hg

Humidity: 70%

Dew point: 72 °F

Location of ThièsLocation

Historic Weather in Thiès — Graph

°F

Thiès temperature yesterday

Maximum temperature yesterday: 82 °F (at 1:30 PM)
Minimum temperature yesterday: 73 °F (at 12:00 AM)
Average temperature yesterday: 76 °F

Past Weeks' High & Low Weather Summary

 TemperatureHumidityPressure
High84 °F (May 22, 2:00 PM)100% (May 28, 2:00 PM)30.04 "Hg (May 28, 2:00 PM)
Low72 °F (May 16, 2:10 AM)66% (May 15, 1:30 PM)29.80 "Hg (May 15, 4:00 PM)
Average77 °F80%29.89 "Hg
* Reported May 15 12:00 Noon — May 30 12:00 Noon, Thiès, Weather by CustomWeather, © 2015

Note: Actual official high and low records may vary slightly from our data, if they occured in-between our weather recording intervals... More about our weather records

Advertising

Thiès weather history for previous 24 hours

 ConditionsComfort  
Time TempWeatherWind HumidityBarometerVisibility
12:00 PM
Sat, May 30
81 °FPassing clouds.12 mph74%29.89 "HgN/A
11:30 AM81 °FPassing clouds.12 mph74%29.89 "HgN/A
11:00 AM79 °FPassing clouds.12 mph79%29.89 "HgN/A
10:30 AM79 °FScattered clouds.12 mph79%29.89 "HgN/A
10:00 AM79 °FPassing clouds.9 mph79%29.89 "HgN/A
9:30 AM77 °FPassing clouds.9 mph83%29.89 "HgN/A
9:00 AM77 °FPassing clouds.9 mph83%29.89 "HgN/A
8:30 AM75 °FPassing clouds.7 mph89%29.89 "HgN/A
8:00 AM73 °FPassing clouds.5 mph94%29.89 "HgN/A
7:30 AM73 °FScattered clouds.5 mph94%29.89 "HgN/A
7:00 AM73 °FScattered clouds.5 mph94%29.86 "HgN/A
6:30 AM73 °FPassing clouds.2 mph94%29.86 "HgN/A
6:00 AM72 °FPassing clouds.2 mph100%29.83 "HgN/A
5:30 AM72 °FPassing clouds.2 mph94%29.83 "HgN/A
5:00 AM72 °FPassing clouds.2 mph94%29.83 "HgN/A
4:30 AM72 °FPassing clouds.2 mph100%29.83 "HgN/A
4:00 AM72 °FPassing clouds.2 mph94%29.83 "HgN/A
3:30 AM73 °FPassing clouds.2 mph94%29.83 "HgN/A
3:00 AM73 °FPassing clouds.1 mph94%29.83 "HgN/A
2:30 AM73 °FPassing clouds.2 mph94%29.86 "HgN/A
2:00 AM73 °FPassing clouds.5 mph94%29.86 "HgN/A
1:30 AM73 °FPassing clouds.5 mph94%29.86 "HgN/A
1:00 AM73 °FPassing clouds.6 mph94%29.86 "HgN/A
12:30 AM73 °FPassing clouds.6 mph94%29.86 "HgN/A
12:00 AM73 °FPassing clouds.7 mph94%29.86 "HgN/A
11:30 PM
Fri, May 29
73 °FPassing clouds.7 mph94%29.86 "HgN/A
11:00 PM73 °FPassing clouds.7 mph94%29.86 "HgN/A
10:30 PM73 °FPassing clouds.7 mph94%29.86 "HgN/A
10:00 PM73 °FPassing clouds.8 mph94%29.86 "HgN/A
9:30 PM75 °FPassing clouds.9 mph89%29.86 "HgN/A
8:30 PM75 °FPassing clouds.8 mph89%29.86 "HgN/A
8:00 PM75 °FPassing clouds.9 mph89%29.83 "HgN/A
7:30 PM75 °FPassing clouds.8 mph89%29.83 "HgN/A
7:00 PM77 °FPassing clouds.12 mph83%29.83 "HgN/A
6:30 PM79 °FPassing clouds.9 mph79%29.83 "HgN/A
6:00 PM79 °FPassing clouds.10 mph79%29.80 "HgN/A
5:30 PM79 °FPassing clouds.12 mph74%29.80 "HgN/A
5:00 PM79 °FSunny.14 mph74%29.80 "Hg10 mi
4:30 PM81 °FPassing clouds.10 mph70%29.80 "HgN/A
4:00 PM79 °FSunny.14 mph74%29.83 "Hg10 mi
3:30 PM79 °FPassing clouds.10 mph74%29.83 "HgN/A
3:00 PM82 °FPassing clouds.12 mph66%29.83 "HgN/A
2:30 PM81 °FPassing clouds.13 mph66%29.83 "HgN/A
2:00 PM82 °FPassing clouds.9 mph66%29.86 "HgN/A
1:30 PM82 °FPassing clouds.8 mph66%29.86 "HgN/A
1:00 PM81 °FPassing clouds.8 mph70%29.89 "HgN/A
Weather by CustomWeather, © 2015

See weather overviewHow to use our weather pages